Location: New Canada
(47.1017°N, 68.5042°W)
Time: 16:36:14
(UTC+00:00)

RS-44 - Pass Details

Date: 23 April 2024
Orbit: 1174 x 1511 km, 82.5° (Epoch: 20 May)

Event Time Altitude Azimuth Distance (km) Brightness Sun altitude
Rises 23:55:06 0° 178° (S) 4,634 ? -4.3°
Reaches altitude 10° 23:58:02 10° 177° (S) 3,645 ? -4.7°
Maximum altitude 00:06:48 73° 95° (E) 1,516 ? -6.1°
Drops below altitude 10° 00:15:08 10° 13° (NNE) 3,476 ? -7.3°
Sets 00:17:52 0° 11° (NNE) 4,411 ? -7.8°
